Location: *
(13.2257°S, 48.7193°W)
Time: 11:00:30
(UTC+00:00)

ARIANE 5 DEB (SYLDA) - Pass Details

Date: 13 February 2026
Orbit: 865 x 35952 km, 1.9° (Epoch: 11 March)

Event Time Altitude Azimuth Distance (km) Brightness Sun altitude
Exits shadow 06:58:36 22° 34° (NE) 1,831 4.5 -31.7°
Drops below altitude 10° 07:01:24 10° 61° (ENE) 2,865 5.8 -31.1°
Sets 07:05:15 0° 74° (ENE) 4,623 7.2 -30.2°
